Location: Spruce Knob
(38.6995°N, 79.5330°W)
Time: 21:16:21
(UTC-05:00)

Transit 2A Rocket - Visible Passes

Search period start: 27 January 2022 00:00
Search period end: 06 February 2022 00:00
Orbit: 585 x 917 km, 66.7° (Epoch: 27 January)

Date Brightness Start Highest point End Pass type
(mag) Time Alt. Az. Time Alt. Az. Time Alt. Az.
27 Jan 5.6 18:31:46 10° SW 18:37:45 72° WNW 18:43:53 10° NNE visible
27 Jan 7.8 20:18:08 10° WNW 20:21:28 15° NW 20:24:49 10° N visible
28 Jan 7.4 19:33:38 10° W 19:38:16 22° NW 19:42:56 10° N visible
29 Jan 6.9 18:49:46 10° WSW 18:55:13 34° NW 19:00:43 10° NNE visible
30 Jan 6.2 18:06:24 10° SW 18:12:18 53° WNW 18:18:17 10° NNE visible
30 Jan 7.9 19:54:26 10° NW 19:56:19 11° NW 19:58:13 10° NNW visible
31 Jan 7.7 19:09:08 10° W 19:13:02 17° NW 19:16:56 10° N visible
01 Feb 7.3 18:24:54 10° WSW 18:29:53 26° NW 18:34:53 10° N visible
03 Feb 7.8 18:45:02 10° WNW 18:47:51 13° NW 18:50:39 10° NNW visible
